Regional Weather Roundup
Issued by NWS

Home | Current Version | Previous Version | Text Only | Print | Product List | Glossary On
Versions: 1 2 3 4 5 6 7 8 9 10 11 12 13 14 15 16 17 18 19 20 21 22 23 24 25 26 27 28 29 30 31 32 33 34 35 36 37 38 39 40 41 42 43 44 45 46 47 48 49 50
000
ASUS44 KFWD 300503
RWRTX
NORTH TEXAS HOURLY WEATHER ROUNDUP
NATIONAL WEATHER SERVICE FORT WORTH TX
1200 AM CDT SUN AUG 30 2015

NOTE: "FAIR" INDICATES FEW OR NO CLOUDS BELOW 12,000 FEET WITH NO
SIGNIFICANT WEATHER AND/OR OBSTRUCTIONS TO VISIBILITY.

TXZ118-119-300600-
DALLAS/FORT WORTH METROPLEX

CITY           SKY/WX    TMP DP  RH WIND       PRES   REMARKS
DFW AIRPORT    MOCLDY    81  64  56 S7        29.97S
DALLAS LOVE    MOCLDY    84  63  49 SW5       29.97S
FTW MEACHAM    MOCLDY    79  64  60 CALM      29.98R
DAL-EXECUTIVE  CLOUDY    77  64  64 CALM      29.98S
FTW-ALLIANCE   MOCLDY    75  64  68 SW5       29.98S
FTW-NAS-JRB    MOCLDY    79  65  62 S6        29.98S
ARLINGTON      MOCLDY    78  65  63 S3        29.98S
GRAND PRAIRIE  MOCLDY    80  67  64 SW6       29.99F
ADDISON        MOCLDY    84  65  53 CALM      29.99S
MESQUITE       MOCLDY    79  66  63 SE3       29.98S
LANCASTER      MOCLDY    78  63  59 CALM      29.99S
$$

TXZ091>094-102>105-117-120-121-131>134-300600-
NORTH CENTRAL TEXAS

CITY           SKY/WX    TMP DP  RH WIND       PRES   REMARKS
SHRMAN/DENISON FAIR      82  63  52 S12       29.96F
BOWIE          PTCLDY    77  53  43 W3        29.99S
BRIDGEPORT     MOCLDY    76  64  65 SW3       30.00S
DECATUR        PTCLDY    75  61  61 SW7       29.99F
DENTON         PTCLDY    79  63  57 SW5       29.97S
MCKINNEY       PTCLDY    82  67  60 SW6       29.96F
ROCKWALL       PTCLDY    80  67  65 S5        29.97S
TERRELL        MOCLDY    81  68  64 SE6       29.98F
WAXAHACHIE     MOCLDY    77  65  65 CALM      30.00S
CLEBURNE         N/A     81  70  69 CALM      30.01S
$$

TXZ083>090-098>101-113>116-127>130-139>142-154-155-300600-
WESTERN NORTH TEXAS

CITY           SKY/WX    TMP DP  RH WIND       PRES   REMARKS
WICHITA FALLS  CLOUDY    82  53  36 W3        29.97F
WF-KICKAPOO    CLOUDY    82  51  34 CALM      29.99S
VERNON         CLOUDY    79  51  37 W6        29.99F
ABILENE        CLOUDY    73  62  68 E6        30.03F
ABILENE-DYESS  CLOUDY    71  62  72 CALM      30.01F
MINERAL WELLS  MOCLDY    74  66  76 S3        29.98F
STEPHENVILLE   CLOUDY    77  61  57 CALM      30.03S
COMANCHE       CLOUDY    75  64  69 CALM      30.02S
COLEMAN        LGT RAIN  75  62  64 SE5       30.03F
$$

TXZ143>147-156>162-174-175-300600-
CENTRAL TEXAS

CITY           SKY/WX    TMP DP  RH WIND       PRES   REMARKS
WACO           CLOUDY    84  64  50 S9        30.00S
CORSICANA      CLOUDY    83  65  54 S10       30.00R
MEXIA          MOCLDY    80  66  62 N3        30.00R
HEARNE         MOCLDY    78  65  64 SE7       30.00S
TEMPLE         MOCLDY    81  61  50 S10       30.00F
KILLEEN        CLOUDY    81  63  54 S7        30.01F
KILLEEN-SKYLRK CLOUDY    82  63  51 SE6       30.01S
FORT HOOD      CLOUDY    81  65  57 S7        30.00S
HAMILTON       CLOUDY    80  63  56 SE5       30.02F
$$

TXZ095>097-106>112-122>126-135>138-148>153-164>167-300600-
EAST TEXAS

CITY           SKY/WX    TMP DP  RH WIND       PRES   REMARKS
PARIS          MOCLDY    79  64  61 S8        29.99R
GILMER         PTCLDY    74  69  83 CALM      30.00R
MINEOLA        MOCLDY    81  70  69 SE5       29.99S
TYLER          PTCLDY    79  67  66 S6        29.99S
LONGVIEW       CLEAR     77  69  76 S7        29.99S
MARSHALL       PTCLDY    76  73  90 CALM      30.01F
ATHENS         MOCLDY    77  66  69 SE5       29.98R
JACKSONVILLE   PTCLDY    79  62  56 S7        30.04R
HENDERSON      PTCLDY    75  65  69 CALM      30.02R
CENTER         FAIR      78  66  64 CALM      30.00S
NACOGDOCHES    PTCLDY    73  64  73 S3        30.01S
LUFKIN         MOCLDY    75  64  68 S5        30.01S
$$

SUPPLEMENTAL OBSERVATIONS (CENTRAL)

CITY           SKY/WX    TMP DP  RH WIND       PRES   REMARKS
$$

SUPPLEMENTAL OBSERVATIONS (WEST)

CITY           SKY/WX    TMP DP  RH WIND       PRES   REMARKS
$$

SUPPLEMENTAL OBSERVATIONS (EAST)

CITY           SKY/WX    TMP DP  RH WIND       PRES   REMARKS
$$

SUPPLEMENTAL OBSERVATIONS ARE A COLLECTION OF AUTOMATED INSTRUMENTS
THAT ARE MAINTAINED BY A VARIETY OF FEDERAL AND STATE AGENCIES.
CERTAIN ELEMENTS...SUCH AS HUMIDITY VALUES AND SUSTAINED WIND
SPEEDS...MAY BE APPROXIMATED.




USA.gov is the U.S. government's official web portal to all federal, state and local government web resources and services.